{"data":{"norad_id":62788,"intl_designator":"2025-016D","name":"QIANFAN-58","alt_names":[],"object_type":"PAYLOAD","status":"ACTIVE","operator":null,"country":"PRC","launch_date":"2025-01-23","launch_site_code":"TAISC","launch_vehicle":null,"mission":null,"orbit_class":"UNKNOWN","rcs_meters":null,"size_class":null,"mass_kg":null,"dimensions":null,"purposes":[],"wikipedia_slug":null,"has_3d_model":false,"image_url":null,"decayed_at":null,"tle_current":{"epoch":"2026-09-22T21:38:37.769856Z","epoch_age_seconds":110680,"freshness":"FRESH","line1":"1 62788U 25016D   26265.90182604  .00000057  00000+0  69950-4 0  9990","line2":"2 62788  88.9649  73.4544 0012294 238.2453 121.7501 13.51027504 85614","mean_motion":13.51027504,"eccentricity":0.0012294,"inclination_deg":88.9649,"raan_deg":73.4544,"arg_perigee_deg":238.2453,"mean_anomaly_deg":121.7501,"bstar":6.995e-5,"rev_number":8561,"period_min":106.58554290987,"perigee_km":1059.3256472607,"apogee_km":1077.6353904161,"semimajor_km":7446.6175188384,"source":"CELESTRAK","updated_at":"2026-09-23T09:00:21.633642Z"}}}